Regional Weather Roundup
Issued by NWS Bismarck, ND

Home | Current Version | Previous Version | Text Only | Print | Product List | Glossary On
Versions: 1 2 3 4 5 6 7 8 9 10 11 12 13 14 15 16 17 18 19 20 21 22 23 24 25 26 27 28 29 30 31 32 33 34 35 36 37 38 39 40 41 42 43 44 45 46 47 48 49 50
000
ASUS43 KBIS 260010
RWRBIS

NWR BROADCAST TEXT
NATIONAL WEATHER SERVICE BISMARCK ND
600 PM CST THU DEC 25 2014

NOTE: "FAIR" INDICATES FEW OR NO CLOUDS BELOW 12,000 FEET WITH NO
SIGNIFICANT WEATHER AND/OR OBSTRUCTIONS TO VISIBILITY.


CITY           SKY/WX    TMP DP  RH WIND       PRES   REMARKS
WILLISTON      CLOUDY    22  15  75 NW12      29.99R WCI  10
MINOT          CLOUDY    24  18  77 NW12      29.94R WCI  13
MINOT AFB      CLOUDY    24  23  96 NW8       29.94R WCI  15
BISMARCK       CLOUDY    28  22  78 N12       29.92R WCI  18
DICKINSON      CLOUDY    24  16  71 NW15      29.90R WCI  11
GARRISON         N/A     25  20  81 N17       29.92R WCI  12
HETTINGER ARPT CLOUDY    23  18  81 N16       29.91R WCI  10
JAMESTOWN      CLOUDY    27  21  78 N12       29.87R WCI  17
BEACH          FLURRIES  19  19 100 N13       29.95R WCI   7
CARRINGTON     CLOUDY    27  27 100 MISG      29.89R
CROSBY         CLOUDY    18  16  93 NW14      30.00R WCI   4
HARVEY         CLOUDY    25  25 100 N7        29.91R WCI  17
HAZEN          CLOUDY    25  19  80 N10       29.95R WCI  15
LINTON         CLOUDY    27  25  93 NW8       29.89R WCI  18
MANDAN         CLOUDY    27  21  80 N16       29.91R WCI  14
OAKES            N/A     27  25  93 N16       29.87R WCI  14
RUGBY          CLOUDY    25  23  93 NW14      29.91R WCI  13
STANLEY        CLOUDY    21  21 100 NW14      29.94R WCI   8
TIOGA          CLOUDY    19  19 100 N16       29.98R WCI   5
WATFORD CITY   CLOUDY    23  18  80 NW14      29.96R WCI  11
$$

CITY           SKY/WX    TMP DP  RH WIND       PRES   REMARKS
GRAND FORKS    CLOUDY    27  24  89 N9        29.91R WCI  18
GRAND FORKS AF CLOUDY    27  27  99 N6        29.92R
DEVILS LAKE    CLOUDY    25  19  80 N6        29.90R WCI  18
FARGO          CLOUDY    29  23  78 N15       29.88R WCI  18
CANDO          CLOUDY    25  23  93 N10       29.92R WCI  15
CAVALIER       CLOUDY    27  21  80 N8        29.92R WCI  18
GWINNER        CLOUDY    30  27  86 N15       29.88R WCI  19
LANGDON        CLOUDY    23  19  86 N7        29.89R WCI  15
ROLLA          CLOUDY    23  23 100 NW13      29.90R WCI  11
WALHALLA         N/A     27  27 100 NW8       29.93R WCI  18
$$

CITY           SKY/WX    TMP DP  RH WIND       PRES   REMARKS
ABERDEEN       CLOUDY    29  22  75 N13       29.87R WCI  19
MOBRIDGE       CLOUDY    28  22  78 N15       29.88R WCI  16
BUFFALO          N/A     22  17  81 N14       29.85R WCI   9
RAPID CITY     CLOUDY    25  21  85 N20       29.87R WCI  11
GLASGOW        CLOUDY    22  15  75 N7        30.01R WCI  13
SIDNEY         CLOUDY    21  16  79 NW9       30.02R WCI  11
WOLF POINT     CLOUDY    22  14  71 N12       30.03R WCI  10
GLENDIVE       CLOUDY    21  18  86 N12       29.99R WCI   9
MILES CITY     CLOUDY    24  19  81 N9        29.99R WCI  14
BAKER          CLOUDY    22  17  81 NW13      29.94R WCI  10
$$

CITY           SKY/WX    TMP DP  RH WIND       PRES   REMARKS
BILLINGS       FLURRIES  24  20  84 E6        29.97R WCI  17
GREAT FALLS    CLEAR     20  14  77 S10       29.92F WCI   9
REGINA         CLOUDY     7   3  85 NW9       30.02R WCI  -7
ESTEVAN        PTCLDY    12   9  85 NW17      29.98R WCI  -5
$$



USA.gov is the U.S. government's official web portal to all federal, state and local government web resources and services.